| time (UTC) | temp F | wind direction | speed knots | gust knots | rain 1hr in | rain 24hr in | rain mn in | humidity % | barometer mb |
| 20260507094551 | 51 | 279 | 0.0 | 3.5 | 0.00 | 0.00 | 0.00 | 80 | 1019.2 |
| 20260507093050 | 51 | 17 | 0.9 | 2.6 | 0.00 | 0.00 | 0.00 | 80 | 1019.3 |
| 20260507091549 | 51 | 254 | 0.0 | 1.7 | 0.00 | 0.00 | 0.00 | 80 | 1019.5 |
| 20260507090055 | 51 | 254 | 0.9 | 3.5 | 0.00 | 0.00 | 0.00 | 80 | 1019.5 |
| 20260507084553 | 51 | 9 | 0.0 | 4.3 | 0.00 | 0.00 | 0.00 | 80 | 1019.5 |
| 20260507083047 | 51 | 61 | 0.0 | 4.3 | 0.00 | 0.00 | 0.00 | 80 | 1019.5 |
| 20260507081545 | 51 | 323 | 0.0 | 0.9 | 0.00 | 0.00 | 0.00 | 81 | 1019.5 |
| 20260507080052 | 51 | 38 | 0.0 | 2.6 | 0.00 | 0.00 | 0.00 | 82 | 1019.5 |
| 20260507074544 | 51 | 315 | 0.0 | 3.5 | 0.00 | 0.00 | 0.00 | 82 | 1019.4 |
| 20260507073045 | 51 | 360 | 0.0 | 8.7 | 0.00 | 0.00 | 0.00 | 82 | 1019.4 |
| 20260507071542 | 51 | 72 | 0.9 | 5.2 | 0.00 | 0.00 | 0.00 | 82 | 1019.3 |
| 20260507070059 | 51 | 18 | 1.7 | 8.7 | 0.00 | 0.00 | 0.00 | 82 | 1019.3 |
| 20260507064548 | 51 | 37 | 3.5 | 7.8 | 0.00 | 0.00 | 0.00 | 82 | 1019.3 |
| 20260507063038 | 51 | 24 | 2.6 | 8.7 | 0.00 | 0.00 | 0.00 | 83 | 1019.3 |
| 20260507061535 | 52 | 346 | 2.6 | 8.7 | 0.00 | 0.00 | 0.00 | 84 | 1019.3 |
| 20260507060033 | 52 | 57 | 0.9 | 4.3 | 0.00 | 0.00 | 0.00 | 85 | 1019.3 |
| 20260507054537 | 52 | 44 | 2.6 | 7.8 | 0.00 | 0.00 | 0.00 | 85 | 1019.3 |
| 20260507053033 | 52 | 44 | 2.6 | 8.7 | 0.00 | 0.00 | 0.00 | 85 | 1019.3 |
| 20260507051528 | 52 | 49 | 2.6 | 8.7 | 0.00 | 0.00 | 0.00 | 85 | 1019.2 |
| 20260507050039 | 53 | 44 | 3.5 | 9.6 | 0.00 | 0.00 | 0.00 | 84 | 1019.3 |
| 20260507044525 | 53 | 28 | 1.7 | 8.7 | 0.00 | 0.00 | 0.00 | 84 | 1019.3 |
| 20260507043025 | 53 | 55 | 3.5 | 9.6 | 0.00 | 0.00 | 0.00 | 83 | 1019.2 |
| 20260507041524 | 54 | 102 | 2.6 | 9.6 | 0.00 | 0.00 | 0.00 | 83 | 1019.1 |
| 20260507040025 | 54 | 14 | 3.5 | 8.7 | 0.00 | 0.00 | 0.00 | 82 | 1018.9 |
| 20260507034523 | 55 | 67 | 6.1 | 10.4 | 0.00 | 0.00 | 0.00 | 82 | 1018.7 |
| 20260507033022 | 55 | 19 | 1.7 | 8.7 | 0.00 | 0.00 | 0.00 | 82 | 1018.5 |
| 20260507031520 | 55 | 56 | 3.5 | 11.3 | 0.00 | 0.00 | 0.00 | 82 | 1018.3 |
| 20260507030019 | 56 | 17 | 5.2 | 10.4 | 0.00 | 0.00 | 0.00 | 81 | 1018.2 |
| 20260507024519 | 56 | 9 | 3.5 | 12.2 | 0.00 | 0.00 | 0.00 | 81 | 1018.0 |
| 20260507023017 | 56 | 37 | 2.6 | 11.3 | 0.00 | 0.00 | 0.00 | 81 | 1017.9 |
| 20260507021521 | 57 | 28 | 6.1 | 14.8 | 0.00 | 0.00 | 0.00 | 80 | 1017.9 |
| 20260507020018 | 57 | 360 | 3.5 | 12.2 | 0.00 | 0.00 | 0.00 | 80 | 1017.8 |
| 20260507014517 | 58 | 355 | 5.2 | 13.0 | 0.00 | 0.00 | 0.00 | 78 | 1018.0 |
| 20260507013016 | 59 | 351 | 2.6 | 13.9 | 0.00 | 0.00 | 0.00 | 77 | 1018.1 |
| 20260507011520 | 60 | 40 | 6.1 | 13.0 | 0.00 | 0.00 | 0.00 | 75 | 1018.0 |
| 20260507010020 | 60 | 9 | 4.3 | 10.4 | 0.00 | 0.00 | 0.00 | 74 | 1018.1 |
| 20260507004512 | 62 | 22 | 6.1 | 11.3 | 0.00 | 0.00 | 0.00 | 73 | 1018.1 |
| 20260507003010 | 62 | 57 | 2.6 | 9.6 | 0.00 | 0.00 | 0.00 | 74 | 1017.9 |
| 20260507001509 | 63 | 15 | 4.3 | 10.4 | 0.00 | 0.00 | 0.00 | 73 | 1017.9 |
| 20260507000009 | 63 | 46 | 2.6 | 8.7 | 0.00 | 0.00 | 0.00 | 74 | 1017.9 |
| 20260506234508 | 64 | 62 | 1.7 | 8.7 | 0.00 | 0.00 | 0.00 | 73 | 1018.0 |
| 20260506233007 | 64 | 59 | 0.0 | 4.3 | 0.00 | 0.00 | 0.00 | 72 | 1017.9 |
| 20260506231507 | 64 | 92 | 0.9 | 5.2 | 0.00 | 0.00 | 0.00 | 71 | 1018.0 |
| 20260506230007 | 64 | 94 | 0.9 | 5.2 | 0.00 | 0.00 | 0.00 | 71 | 1018.2 |
| 20260506224505 | 63 | 94 | 0.0 | 6.1 | 0.00 | 0.00 | 0.00 | 73 | 1018.4 |
| 20260506223004 | 63 | 95 | 0.9 | 7.0 | 0.00 | 0.00 | 0.00 | 72 | 1018.6 |
| 20260506221505 | 64 | 48 | 0.9 | 6.1 | 0.00 | 0.00 | 0.00 | 71 | 1018.5 |
| 20260506220002 | 64 | 169 | 0.0 | 3.5 | 0.00 | 0.00 | 0.00 | 75 | 1018.6 |
| 20260506214602 | 64 | 136 | 0.0 | 3.5 | 0.00 | 0.00 | 0.00 | 74 | 1018.5 |
| 20260506213100 | 62 | 196 | 0.9 | 4.3 | 0.00 | 0.00 | 0.00 | 77 | 1018.6 |
| 20260506211557 | 62 | 175 | 0.0 | 2.6 | 0.00 | 0.00 | 0.00 | 77 | 1018.8 |
| 20260506210053 | 61 | 76 | 0.0 | 3.5 | 0.00 | 0.00 | 0.00 | 78 | 1019.0 |
| 20260506204550 | 61 | 88 | 0.0 | 2.6 | 0.00 | 0.00 | 0.00 | 79 | 1018.9 |
| 20260506203049 | 60 | 105 | 0.9 | 2.6 | 0.00 | 0.00 | 0.00 | 80 | 1018.9 |
| 20260506201545 | 59 | 101 | 0.0 | 1.7 | 0.00 | 0.00 | 0.00 | 83 | 1018.8 |
| 20260506200046 | 58 | 72 | 0.0 | 2.6 | 0.00 | 0.00 | 0.00 | 82 | 1019.0 |
| 20260506194544 | 57 | 84 | 2.6 | 5.2 | 0.00 | 0.00 | 0.00 | 83 | 1019.2 |
| 20260506193049 | 58 | 73 | 0.9 | 5.2 | 0.00 | 0.00 | 0.00 | 84 | 1019.3 |
| 20260506191540 | 57 | 86 | 0.0 | 3.5 | 0.00 | 0.00 | 0.00 | 85 | 1019.2 |
| 20260506190040 | 58 | 95 | 0.9 | 2.6 | 0.00 | 0.00 | 0.00 | 84 | 1019.1 |
| 20260506184540 | 57 | 59 | 0.0 | 2.6 | 0.00 | 0.00 | 0.00 | 85 | 1019.1 |
| 20260506183036 | 56 | 196 | 0.0 | 5.2 | 0.00 | 0.00 | 0.00 | 86 | 1018.9 |
| 20260506181543 | 56 | 144 | 0.0 | 0.9 | 0.00 | 0.00 | 0.00 | 88 | 1019.1 |
| 20260506180036 | 55 | 142 | 0.0 | 0.0 | 0.00 | 0.00 | 0.00 | 87 | 1019.0 |
| 20260506174537 | 55 | 142 | 0.0 | 0.0 | 0.00 | 0.00 | 0.00 | 88 | 1019.1 |
| 20260506173058 | 55 | 141 | 0.0 | 1.7 | 0.00 | 0.00 | 0.00 | 88 | 1018.9 |
| 20260506171541 | 55 | 157 | 0.0 | 2.6 | 0.00 | 0.00 | 0.00 | 89 | 1018.8 |
| 20260506170048 | 54 | 74 | 0.0 | 0.0 | 0.00 | 0.00 | 0.00 | 89 | 1018.8 |
| 20260506164533 | 54 | 74 | 0.0 | 0.0 | 0.00 | 0.00 | 0.00 | 89 | 1018.9 |
| 20260506163035 | 54 | 74 | 0.0 | 2.6 | 0.00 | 0.00 | 0.00 | 90 | 1018.8 |
| 20260506161532 | 53 | 51 | 0.9 | 4.3 | 0.00 | 0.00 | 0.00 | 90 | 1018.7 |
| 20260506160031 | 53 | 40 | 0.9 | 4.3 | 0.00 | 0.00 | 0.00 | 91 | 1018.6 |
| 20260506154530 | 53 | 73 | 1.7 | 7.0 | 0.00 | 0.00 | 0.00 | 91 | 1018.3 |
| 20260506153028 | 52 | 85 | 0.9 | 3.5 | 0.00 | 0.00 | 0.00 | 91 | 1018.2 |
| 20260506151628 | 52 | 5 | 1.7 | 5.2 | 0.00 | 0.00 | 0.00 | 91 | 1018.8 |
| 20260506150027 | 52 | 38 | 3.5 | 7.8 | 0.00 | 0.00 | 0.00 | 91 | 1018.7 |
| 20260506144524 | 53 | 5 | 2.6 | 7.0 | 0.00 | 0.00 | 0.00 | 91 | 1018.4 |
| 20260506143026 | 53 | 360 | 2.6 | 5.2 | 0.00 | 0.00 | 0.00 | 91 | 1018.3 |
| 20260506141519 | 53 | 60 | 3.5 | 7.8 | 0.00 | 0.00 | 0.00 | 91 | 1017.9 |
| 20260506140020 | 53 | 84 | 0.9 | 3.5 | 0.00 | 0.00 | 0.00 | 91 | 1017.9 |
| 20260506134517 | 53 | 80 | 1.7 | 5.2 | 0.00 | 0.00 | 0.00 | 91 | 1017.8 |
| 20260506133015 | 53 | 59 | 2.6 | 4.3 | 0.00 | 0.00 | 0.00 | 91 | 1017.7 |
| 20260506131514 | 53 | 53 | 0.9 | 2.6 | 0.00 | 0.00 | 0.00 | 91 | 1017.5 |
| 20260506130012 | 53 | 50 | 0.0 | 1.7 | 0.00 | 0.00 | 0.00 | 91 | 1017.3 |
| 20260506124512 | 53 | 29 | 0.0 | 0.0 | 0.00 | 0.00 | 0.00 | 91 | 1017.3 |
| 20260506123011 | 53 | 26 | 0.0 | 2.6 | 0.00 | 0.00 | 0.00 | 91 | 1017.1 |
| 20260506121509 | 53 | 40 | 0.9 | 4.3 | 0.00 | 0.00 | 0.00 | 91 | 1017.3 |
| 20260506120008 | 53 | 12 | 0.9 | 5.2 | 0.00 | 0.00 | 0.00 | 90 | 1017.2 |
| 20260506114506 | 53 | 13 | 2.6 | 5.2 | 0.00 | 0.00 | 0.00 | 90 | 1017.1 |
| 20260506113004 | 53 | 27 | 1.7 | 4.3 | 0.00 | 0.00 | 0.00 | 89 | 1016.9 |
| 20260506111503 | 53 | 19 | 0.0 | 3.5 | 0.00 | 0.00 | 0.00 | 89 | 1016.9 |
| 20260506104634 | 54 | 21 | 2.6 | 5.2 | 0.00 | 0.00 | 0.00 | 89 | 1016.3 |
| 20260506103100 | 54 | 360 | 3.5 | 7.0 | 0.00 | 0.00 | 0.00 | 89 | 1016.2 |
| 20260506101555 | 54 | 40 | 3.5 | 7.0 | 0.00 | 0.00 | 0.00 | 89 | 1016.1 |
| 20260506100054 | 54 | 32 | 2.6 | 8.7 | 0.00 | 0.00 | 0.00 | 89 | 1015.9 |